Zurück zum Katalog

NOAA 17 DEB

AktivPO
NORAD 48741·DEBRIS·🇺🇸 United States

Gestartet Jun 24, 2002 von Vandenberg Space Force Base

Loading…

Nächste Überflüge (nächste 24 Stunden)

TLE

AktuellSource: Space-Track

Epoche: Sep 14, 2026, 07:11 UTC

1 48741U 02032CA  26257.29984889  .00013627  00000-0  16925-2 0  9994
2 48741  98.6922 267.8428 0003037 201.1349 158.9737 14.82726111288520

Verfolge NOAA 17 DEB in Echtzeit mit AllMySat

Download on the App Store